Weather History for Lebanon, NH

Change the Weather History Date:

Sunday, October 12, 2014

  Actual Average Record
Temperature  
Mean Temperature 47 °F -  
Max Temperature 61 °F 59 °F 84 °F (1928)
Min Temperature 33 °F 38 °F 20 °F (1929)
Degree Days  
Heating Degree Days 18    
Moisture  
Dew Point 33 °F    
Average Humidity 78    
Maximum Humidity 93    
Minimum Humidity 29    
Precipitation  
Precipitation 0.00 in - - ()
Sea Level Pressure  
Sea Level Pressure 30.24 in    
Wind  
Wind Speed 1 mph (South)    
Max Wind Speed 12 mph    
Max Gust Speed -    
Visibility 6 miles    
Events Fog    
Averages and records for this station are not official NWS values.
T = Trace of Precipitation, MM = Missing Value Source: NWS Daily Summary

Daily Weather History Graph

Daily Weather History Graph

Search for Another Location

Airport:

Trip Planner

Search our weather history database for the weather conditions in past years. The results will help you decide how hot, cold, wet, or windy it might be!

Date:

Astronomy

Oct. 12, 2014 Rise Set
Actual Time 6:59 AM EDT 6:10 PM EDT
Civil Twilight 6:30 AM EDT 6:39 PM EDT
Nautical Twilight 5:57 AM EDT 7:12 PM EDT
Astronomical Twilight 5:24 AM EDT 7:46 PM EDT
Moon 9:20 PM EDT (10/12) 11:24 AM EDT (10/12)
Length of Visible Light 12h 08m
Length of Day
11h 11m
Waning Gibbous, 79% of the Moon is Illuminated
Oct 12
Waning Gibbous
Oct 15
Last Quarter
Oct 23
New
Oct 30
First Quarter
Nov 6
Full

Hourly Weather History & Observations

Time (EDT) Temp. Windchill Dew Point Humidity Pressure Visibility Wind Dir Wind Speed Gust Speed Precip Events Conditions
12:53 AM 41.0 °F - 37.0 °F 86% 30.16 in 10.0 mi Calm Calm - N/A   Overcast
1:53 AM 37.9 °F - 35.1 °F 89% 30.18 in 9.0 mi Calm Calm - N/A   Clear
2:53 AM 36.0 °F - 32.0 °F 86% 30.18 in 10.0 mi Calm Calm - N/A   Clear
3:53 AM 34.0 °F 31.0 °F 30.9 °F 89% 30.19 in 7.0 mi NNE 3.5 mph - N/A   Partly Cloudy
4:05 AM 33.1 °F - 30.0 °F 89% 30.18 in 8.0 mi Calm Calm - N/A   Mostly Cloudy
4:22 AM 34.0 °F - 30.9 °F 89% 30.18 in 2.5 mi Calm Calm - N/A   Overcast
4:31 AM 34.0 °F 31.0 °F 30.9 °F 89% 30.19 in 0.8 mi South 3.5 mph - N/A   Mist
4:40 AM 33.1 °F - 30.9 °F 92% 30.18 in 0.2 mi Calm Calm - N/A Fog Fog
4:53 AM 34.0 °F - 30.9 °F 89% 30.20 in 0.2 mi Calm Calm - N/A Fog Fog
5:00 AM 34.0 °F - 32.0 °F 92% 30.19 in 0.8 mi Calm Calm - N/A   Mist
5:33 AM 35.1 °F - 33.1 °F 92% 30.20 in 0.2 mi Calm Calm - N/A Fog Fog
5:53 AM 36.0 °F - 33.1 °F 89% 30.21 in 0.2 mi Calm Calm - N/A Fog Fog
6:53 AM 35.1 °F 31.0 °F 33.1 °F 92% 30.25 in 0.2 mi SSE 4.6 mph - N/A Fog Fog
7:04 AM 34.0 °F 29.8 °F 32.0 °F 92% 30.23 in 0.8 mi South 4.6 mph - N/A   Mist
7:20 AM 35.1 °F - 33.1 °F 92% 30.24 in 2.0 mi Calm Calm - N/A   Overcast
7:28 AM 35.1 °F 32.2 °F 33.1 °F 92% 30.24 in 0.8 mi SSE 3.5 mph - N/A   Overcast
7:51 AM 35.6 °F - 33.8 °F 93% 30.25 in 0.2 mi Calm Calm - N/A Fog Fog
7:53 AM 35.1 °F - 33.1 °F 92% 30.27 in 0.2 mi Calm Calm - N/A Fog Fog
8:42 AM 37.0 °F - 34.0 °F 89% 30.27 in 0.5 mi Calm Calm - N/A Fog Fog
8:53 AM 37.0 °F - 35.1 °F 93% 30.29 in 0.5 mi Calm Calm - N/A Fog Fog
9:11 AM 37.0 °F - 35.1 °F 93% 30.28 in 1.0 mi Calm Calm - N/A   Overcast
9:20 AM 37.9 °F - 35.1 °F 89% 30.28 in 3.0 mi Calm Calm - N/A   Overcast
9:53 AM 39.0 °F - 36.0 °F 89% 30.30 in 5.0 mi Calm Calm - N/A   Overcast
10:11 AM 42.1 °F - 37.0 °F 82% 30.29 in 10.0 mi Calm Calm - N/A   Scattered Clouds
10:53 AM 46.9 °F - 37.0 °F 68% 30.30 in 10.0 mi Calm Calm - N/A   Scattered Clouds
11:53 AM 55.0 °F - 34.0 °F 45% 30.28 in 10.0 mi WNW 11.5 mph - N/A   Mostly Cloudy
12:53 PM 57.0 °F - 33.1 °F 40% 30.26 in 10.0 mi Variable 3.5 mph - N/A   Scattered Clouds
1:53 PM 57.9 °F - 30.9 °F 36% 30.24 in 10.0 mi Calm Calm - N/A   Clear
2:53 PM 60.1 °F - 30.9 °F 33% 30.24 in 10.0 mi WNW 8.1 mph - N/A   Clear
3:53 PM 60.1 °F - 28.9 °F 31% 30.23 in 10.0 mi Variable 4.6 mph - N/A   Clear
4:53 PM 61.0 °F - 28.0 °F 29% 30.23 in 10.0 mi NNW 5.8 mph - N/A   Clear
5:53 PM 52.0 °F - 37.0 °F 57% 30.24 in 10.0 mi Calm Calm - N/A   Clear
6:53 PM 44.1 °F 42.5 °F 35.1 °F 71% 30.26 in 10.0 mi SSE 3.5 mph - N/A   Clear
7:53 PM 39.9 °F - 34.0 °F 79% 30.28 in 10.0 mi Calm Calm - N/A   Clear
8:53 PM 37.9 °F - 32.0 °F 79% 30.30 in 10.0 mi Calm Calm - N/A   Clear
9:53 PM 36.0 °F - 32.0 °F 86% 30.30 in 10.0 mi Calm Calm - N/A   Clear
10:53 PM 36.0 °F - 30.9 °F 82% 30.30 in 10.0 mi Calm Calm - N/A   Clear
11:53 PM 34.0 °F - 30.0 °F 85% 30.30 in 10.0 mi Calm Calm - N/A   Clear